RH
22 23 26 29 33 39 41 43 45 45 45 42 44 41 38 44 41 44 36 44 41 46 47 53 53 54 59 61 68 77 78 58 92 97 100 87 72 66 59 56 60 62 72
24 23 25 28 31 36 40 43 45 46 47 49 50 49 44 43 42 40 45 47 47 45 53 54 58 61 65 65 68 69 84 86 90 99 100 99 97 91 80 65 56 61 66
25 24 25 28 31 35 39 43 45 46 46 50 49 47 47 45 47 48 48 48 48 50 52 53 58 64 65 69 70 71 73 91 88 94 99 98 98 93 84 73 63 58 61
25 25 28 30 33 36 38 41 44 46 47 51 52 53 53 54 53 53 51 51 48 53 50 54 58 60 65 66 69 71 76 80 84 81 90 85 100 98 99 89 85 69 65
28 29 31 34 35 36 38 41 43 45 49 51 52 53 54 54 54 53 53 54 56 57 54 57 57 61 64 65 66 69 71 75 79 87 90 89 84 92 98 97 90 89 80
35 31 33 35 36 37 39 41 43 46 50 52 53 54 55 55 56 56 57 60 60 60 61 60 61 62 63 64 67 69 70 73 78 82 83 86 91 84 94 94 94 91 79
40 37 37 41 41 42 43 44 48 50 53 54 55 56 56 56 58 59 61 62 63 64 64 63 63 62 64 66 68 69 70 72 75 78 83 85 87 85 91 94 94 94 89
53 48 47 49 49 50 51 54 55 56 58 59 59 58 57 58 60 62 63 64 66 66 65 63 63 66 67 68 69 70 71 70 71 73 76 79 82 85 85 89 92 95 88
72 65 54 56 59 60 63 63 64 65 65 65 64 63 63 64 64 65 66 67 66 65 63 66 68 69 70 70 70 71 71 70 70 71 72 74 78 80 83 88 87 91 95
78 65 61 68 71 74 72 70 70 71 72 71 70 70 70 70 68 67 67 66 65 65 67 69 70 72 72 72 72 72 72 71 70 70 69 69 70 71 74 80 88 93 92
80 80 72 75 77 80 80 78 73 76 76 77 72 72 72 71 70 67 68 68 68 70 71 73 74 74 74 74 74 74 73 72 72 70 69 69 68 70 71 74 79 79 76
89 73 73 75 78 83 81 78 69 69 73 72 76 75 73 73 74 70 69 73 76 77 77 77 77 77 76 75 75 77 78 76 78 76 75 72 69 70 70 71 72 71 78
83 74 69 73 78 83 84 84 74 68 65 71 71 68 69 73 78 74 76 77 81 83 83 82 81 80 79 78 77 78 78 78 79 80 80 76 73 73 72 72 73 74 75
76 78 73 73 78 83 85 83 74 68 68 68 70 72 70 76 74 76 80 82 81 85 88 86 85 84 82 82 80 80 80 80 80 78 79 80 78 76 76 78 79 77 75
91 90 92 92 88 82 84 83 79 74 70 74 70 66 69 72 78 86 90 86 84 88 91 91 89 87 86 82 78 82 88 90 93 88 84 85 83 78 78 78 79 78 79
87 82 86 89 86 85 86 88 79 70 71 69 68 69 71 77 84 94 92 92 93 94 94 95 94 92 90 82 79 82 98 100 100 95 90 87 82 81 71 69 74 82 81
92 87 87 85 83 82 82 91 78 77 74 72 67 71 78 86 88 89 95 99 98 99 100 99 98 95 93 85 84 84 97 99 99 97 95 91 86 76 79 76 69 71 74
87 85 87 86 84 82 89 88 82 86 88 85 77 73 84 88 84 90 100 100 100 100 100 100 98 96 95 86 82 83 96 99 99 96 92 88 86 82 77 79 82 81 77
94 90 86 85 83 87 88 92 94 90 94 88 84 83 84 88 90 98 100 100 100 100 100 99 97 96 93 88 85 84 96 98 96 92 87 85 82 78 73 72 78 86 82
78 76 75 75 92 84 80 88 97 96 96 88 90 89 84 87 95 100 100 100 100 100 100 96 95 94 90 89 84 85 97 97 96 93 89 78 70 70 66 65 80 95 83
58 58 66 68 71 72 75 85 94 97 85 88 86 88 84 90 98 100 100 100 100 100 99 98 95 94 92 86 82 80 86 96 96 93 90 86 75 68 65 67 80 90 85
55 55 59 61 62 64 67 74 80 76 79 79 86 88 87 90 100 98 98 100 99 98 94 94 94 89 87 83 79 78 81 84 93 96 81 72 73 72 71 83 87 77 75
52 52 54 57 58 60 61 67 65 67 74 80 84 87 87 89 90 100 100 100 95 93 90 92 92 91 86 84 80 77 76 79 82 80 88 86 73 67 68 78 79 80 86
55 54 56 60 64 62 65 63 63 72 78 86 92 94 98 98 95 84 100 93 95 88 87 93 93 90 90 87 86 92 98 91 90 98 92 90 87 84 76 76 79 84 69
60 61 63 64 66 70 71 69 75 82 93 98 100 100 100 99 98 96 91 91 82 80 79 90 97 96 93 92 94 95 96 97 96 96 95 87 80 77 77 80 80 74 70
75 74 74 79 76 76 82 85 82 93 100 100 100 100 96 97 100 91 90 82 73 70 73 78 84 93 95 92 93 92 94 91 91 95 90 84 83 83 80 79 76 76 76
Wind_Speed
11 9 9 11 12 14 16 17 18 20 22 24 26 27 28 25 24 22 25 24 28 27 27 27 29 30 29 30 28 27 30 32 25 24 21 24 23 23 26 28 30 33 25
8 9 9 10 12 13 14 16 17 18 19 20 19 18 19 18 19 24 25 25 28 28 25 26 26 27 28 28 27 26 24 20 21 12 22 3 12 27 28 32 35 35 33
8 8 9 10 10 12 13 13 14 15 16 17 18 20 18 20 23 27 27 28 27 25 25 27 26 24 24 25 25 24 23 22 24 14 11 4 2 5 21 28 33 34 36
6 8 7 7 8 9 9 11 12 14 13 16 17 17 17 19 21 23 25 27 26 24 27 25 25 24 23 24 24 22 22 20 25 24 6 22 15 4 2 22 31 30 32
7 8 7 4 5 7 8 10 11 12 13 14 14 15 17 17 20 23 24 26 25 25 26 24 26 25 26 24 23 25 23 21 21 21 25 24 20 23 10 3 8 25 33
7 7 6 3 4 5 7 9 10 11 12 13 13 14 16 19 21 22 23 23 25 27 24 25 25 26 26 26 27 27 26 23 22 23 22 20 12 15 11 6 8 10 21
6 7 5 3 3 5 7 8 9 11 12 13 13 14 15 17 19 21 21 24 25 26 27 27 28 27 28 29 28 28 28 26 24 24 24 23 24 23 20 20 17 13 15
6 6 5 1 3 5 7 9 10 12 12 13 15 15 15 17 19 21 23 24 24 25 28 29 29 30 29 30 29 29 28 27 26 27 26 26 26 24 24 20 17 13 13
5 6 5 2 1 4 6 9 11 12 13 14 15 16 16 18 20 23 24 24 25 25 27 29 30 31 31 30 30 30 30 29 28 27 28 27 26 26 25 25 23 18 8
6 6 5 1 2 4 7 8 10 12 13 14 15 16 19 19 21 23 24 25 26 27 29 30 30 31 32 31 31 31 30 30 30 28 29 29 27 27 26 25 25 23 21
7 7 5 1 2 5 7 9 11 13 14 15 18 19 20 21 22 23 24 26 27 28 29 30 32 32 32 32 32 32 32 32 31 30 29 30 28 28 26 25 25 27 24
4 6 3 3 1 5 9 11 13 15 16 17 18 19 20 22 22 23 25 26 28 29 30 31 32 33 33 33 33 33 33 33 33 33 31 31 30 30 28 27 27 28 27
2 2 2 2 4 8 10 13 15 17 18 18 20 21 22 22 23 26 27 27 29 30 31 31 33 34 34 34 34 34 35 35 35 34 33 32 31 32 30 29 29 27 26
1 2 2 4 5 7 10 13 16 18 19 20 21 23 23 23 25 27 27 28 29 31 32 32 34 35 35 35 35 34 35 36 36 35 36 34 32 33 32 31 28 27 28
2 4 5 7 8 10 14 17 18 20 20 22 23 24 25 25 26 27 27 29 30 30 32 33 34 34 34 34 33 34 35 35 36 37 36 35 35 35 35 34 31 29 29
6 7 10 10 11 14 18 18 21 22 22 23 24 25 25 26 27 28 30 30 30 31 31 32 34 35 34 34 35 36 36 35 35 37 37 36 36 37 38 39 40 39 35
5 7 10 13 16 18 20 20 22 22 23 23 24 24 25 27 29 30 30 29 31 31 32 33 33 35 35 35 35 37 36 34 34 35 36 37 35 35 35 36 39 40 41
6 11 15 18 22 22 22 22 22 24 24 25 24 24 25 29 32 32 30 31 30 31 32 33 34 35 35 35 35 36 36 34 35 35 36 36 39 36 36 36 37 38 38
15 18 18 20 22 23 22 22 23 24 25 26 25 27 28 31 33 32 33 32 31 32 33 33 35 33 37 35 34 35 33 32 33 35 36 37 38 41 39 39 39 39 40
18 19 20 21 19 22 23 22 24 24 26 28 28 29 30 31 32 33 33 34 31 34 33 34 35 34 36 35 34 33 33 31 30 31 33 36 39 41 44 43 39 36 40
17 20 18 17 19 21 22 24 24 23 27 26 30 30 31 31 32 32 32 32 34 32 35 33 35 34 32 34 33 35 34 31 31 32 32 32 36 41 44 43 40 37 39
18 19 20 21 20 20 21 24 23 25 25 27 28 30 32 32 30 32 34 31 30 31 32 32 33 32 32 32 34 34 35 36 34 32 36 42 44 44 44 43 43 48 48
19 21 22 23 21 19 22 23 26 26 25 26 29 30 32 32 30 29 28 29 28 27 30 30 31 31 33 34 34 34 35 37 39 42 44 45 48 48 47 46 47 50 46
21 22 23 21 22 23 23 23 26 24 26 28 29 29 28 28 26 32 25 27 26 27 29 29 29 32 33 33 33 35 35 39 43 32 39 40 41 43 44 46 45 44 43
25 24 23 24 26 23 24 25 26 27 26 26 26 26 24 25 28 27 26 27 28 29 32 32 32 31 31 34 40 42 42 44 40 44 34 29 29 30 31 33 37 40 41
25 26 26 25 26 27 28 28 30 26 26 25 23 23 24 26 25 27 28 26 28 32 31 32 33 36 36 39 40 42 46 43 42 34 27 28 29 30 32 33 34 37 41
Wind_Direction
107 88 78 68 60 48 42 35 31 26 17 18 14 8 3 1 3 355 354 355 351 355 354 347 346 346 344 341 345 344 340 333 333 327 244 227 223 225 230 238 241 235 234
118 102 83 66 56 47 38 32 29 23 16 15 10 2 0 353 351 346 353 351 350 348 349 346 344 343 340 340 343 344 343 327 341 330 303 224 232 237 230 232 229 232 234
117 103 85 66 51 42 32 27 24 20 12 8 5 359 360 354 351 349 345 344 344 347 341 340 340 339 339 335 336 340 338 329 325 322 288 317 300 220 228 225 227 226 225
119 111 86 60 51 39 28 24 18 14 8 6 3 0 355 344 338 336 334 335 340 337 336 337 336 334 335 331 330 329 329 329 318 328 309 311 311 315 261 224 226 224 227
125 124 104 76 56 34 22 13 7 5 359 357 357 352 343 338 331 332 332 331 331 330 333 332 330 330 329 326 324 323 321 317 308 309 313 316 309 279 260 236 215 228 229
141 131 130 101 53 25 14 4 360 355 350 349 347 343 337 333 330 329 328 327 324 324 325 326 326 323 322 321 318 316 312 309 302 299 298 297 297 307 321 326 332 247 230
163 158 130 77 30 13 5 359 350 348 344 341 339 336 331 327 323 322 322 321 319 319 318 320 319 318 316 314 313 310 307 304 298 294 290 288 281 284 283 281 285 282 250
172 157 130 105 16 360 352 348 345 340 338 334 332 329 326 323 319 316 315 312 310 310 311 312 311 311 310 309 308 305 302 300 296 293 287 284 283 282 280 279 287 296 283
164 156 149 156 27 357 343 343 339 335 333 332 329 325 322 319 316 314 311 308 306 307 307 307 307 306 305 304 304 301 298 296 294 290 288 283 281 278 276 272 267 259 278
158 162 154 145 331 332 338 336 334 329 326 328 324 321 319 318 315 314 309 308 306 307 305 305 304 303 302 301 300 298 295 294 291 290 288 285 283 280 277 276 277 269 269
168 153 156 192 319 324 331 332 330 329 327 323 321 321 320 316 315 312 309 308 306 305 303 302 301 300 299 298 296 294 294 291 289 288 288 286 287 285 281 278 275 272 265
120 122 164 241 325 325 328 326 329 328 325 320 319 318 315 313 311 309 307 306 304 303 301 300 298 297 296 295 293 292 290 289 289 288 286 284 286 283 281 279 274 273 275
139 212 190 38 345 319 320 322 324 327 323 322 320 321 319 316 309 308 307 305 303 302 301 299 297 296 294 293 291 289 287 285 284 283 282 282 283 281 280 278 277 276 278
107 211 79 5 333 317 312 312 315 322 323 321 321 319 321 316 313 312 308 305 303 300 300 298 296 294 293 291 290 288 285 283 280 279 276 275 274 275 279 280 279 278 276
250 32 15 336 325 322 310 312 314 318 323 317 319 321 323 321 317 312 309 306 303 299 298 297 295 294 292 291 289 287 283 280 278 278 276 273 271 272 271 270 270 268 271
11 349 332 325 319 309 304 311 312 317 320 320 319 321 325 324 319 311 308 307 304 301 300 296 295 294 292 292 293 290 287 282 278 277 277 275 274 272 274 272 269 264 260
350 322 314 309 303 302 307 302 310 316 320 319 319 320 322 322 315 312 309 305 304 303 299 298 295 293 293 296 294 293 289 284 280 278 276 278 275 275 274 273 272 268 262
296 287 286 294 300 305 304 312 313 314 313 312 315 318 319 318 319 315 307 306 305 302 300 298 296 294 294 299 297 295 291 285 280 278 277 275 276 272 270 269 268 262 258
283 286 286 290 297 302 309 310 306 310 310 310 315 317 316 316 318 311 309 306 305 303 301 299 297 297 298 300 298 298 294 286 280 276 273 271 271 273 271 271 269 266 263
287 287 288 290 291 300 307 301 299 303 301 311 313 315 315 314 314 309 305 305 302 301 302 300 298 299 298 300 302 299 292 286 285 282 277 275 275 275 276 274 265 261 262
292 297 297 293 295 300 301 292 293 289 303 307 309 312 315 314 312 306 304 304 303 303 302 301 300 299 298 301 304 304 302 295 289 283 279 276 279 279 276 271 268 262 267
304 303 297 294 296 297 298 293 292 301 303 305 307 307 310 312 307 308 308 301 304 304 305 304 302 301 301 304 306 306 303 302 298 294 290 285 283 279 274 271 270 268 266
308 309 303 300 300 299 300 294 301 305 307 307 306 307 310 309 312 302 301 302 306 305 305 302 300 302 306 306 308 309 307 303 301 292 287 288 289 285 282 276 271 268 263
300 300 301 301 298 301 292 297 302 303 306 303 303 304 302 305 304 308 296 301 301 306 302 299 302 305 306 308 310 306 305 308 300 297 296 291 289 287 282 276 268 260 255
293 291 290 292 291 291 296 297 296 299 298 297 297 297 298 297 299 299 299 301 305 305 305 306 305 309 307 310 310 313 313 308 312 309 305 299 295 290 282 273 264 256 252
282 282 281 282 287 291 290 292 295 294 291 291 293 293 298 296 294 300 301 303 307 311 309 308 310 312 310 312 315 315 316 317 317 316 304 297 291 286 281 275 271 260 252